CST,Max TemperatureF,Mean TemperatureF,Min TemperatureF,Max Dew PointF,MeanDew PointF,Min DewpointF,Max Humidity, Mean Humidity, Min Humidity, Max Sea Level PressureIn, Mean Sea Level PressureIn, Min Sea Level PressureIn, Max VisibilityMiles, Mean VisibilityMiles, Min VisibilityMiles, Max Wind SpeedMPH, Mean Wind SpeedMPH, Max Gust SpeedMPH,PrecipitationIn, CloudCover, Events, WindDirDegrees
2013-2-1,60,45,30,34,28,19,75,53,29,30.39,30.28,30.15,10,10,10,10,6,,0.00,0,,100
2013-2-2,66,52,39,43,33,27,87,53,24,30.37,30.25,30.17,10,10,10,16,6,17,0.00,0,,333
2013-2-3,68,50,33,34,26,18,87,45,15,30.36,30.23,30.00,10,10,10,14,5,20,0.00,0,,162
2013-2-4,75,64,53,50,44,28,82,52,31,29.99,29.89,29.80,10,10,10,16,8,23,0.00,1,,219
2013-2-5,66,56,46,54,48,37,94,80,60,30.05,29.97,29.89,10,7,0,10,5,,0.00,4,,356
2013-2-6,71,63,55,57,55,52,100,79,50,30.02,29.95,29.85,10,6,0,14,7,20,0.00,4,,138
2013-2-7,73,62,50,54,48,34,88,63,25,30.17,29.96,29.89,10,10,10,22,12,30,0.00,2,,262
2013-2-8,62,52,41,37,26,14,71,44,15,30.29,30.20,30.12,10,10,10,14,9,16,0.00,0,,42
2013-2-9,60,53,46,59,47,32,100,84,50,30.13,29.95,29.74,10,6,1,17,10,25,0.00,6,,146
2013-2-10,64,55,46,63,32,16,94,47,15,30.04,29.89,29.67,10,9,1,20,10,39,0.71,1,,272
2013-2-11,57,52,46,41,36,30,76,59,41,30.14,30.08,30.02,10,10,10,15,6,21,0.00,6,,73
2013-2-12,53,45,37,46,41,32,93,82,62,30.11,29.96,29.89,10,9,1,17,8,28,0.12,7,,331
2013-2-13,59,46,32,34,30,21,100,63,25,30.17,30.10,30.04,10,10,10,18,7,23,0.00,1,,310
2013-2-14,68,52,35,36,30,19,87,52,16,30.12,30.06,30.00,10,10,10,14,5,16,0.00,0,,180
2013-2-15,51,43,32,34,27,14,69,52,27,30.41,30.30,30.08,10,10,10,20,10,26,0.00,3,,18
2013-2-16,60,45,30,28,24,21,75,49,22,30.42,30.31,30.17,10,10,10,12,4,16,0.00,0,,276
2013-2-17,71,55,39,43,29,21,65,42,16,30.17,30.03,29.91,10,10,10,21,9,30,0.00,0,,189
2013-2-18,73,60,46,52,39,19,77,50,13,30.16,29.93,29.82,10,10,10,24,16,34,0.00,2,,256
2013-2-19,60,48,35,32,25,12,75,42,16,30.33,30.21,30.14,10,10,10,18,8,24,0.00,2,,85
2013-2-20,48,45,42,41,37,34,93,74,58,30.15,29.97,29.72,10,10,2,23,10,29,0.08,8,,97
2013-2-21,66,54,42,50,35,18,94,60,16,29.94,29.76,29.59,10,8,0,26,11,38,0.07,3,,277
2013-2-22,50,40,30,34,26,21,87,63,35,30.15,30.07,29.94,10,10,10,15,9,25,0.03,0,,1
2013-2-23,59,44,30,32,28,25,87,60,27,30.11,30.01,29.91,10,10,10,9,3,,0.00,0,,74
2013-2-24,69,51,33,48,37,32,93,59,31,29.92,29.79,29.57,10,10,10,21,9,29,0.00,0,,152
2013-2-25,59,48,37,52,36,27,88,70,40,29.80,29.64,29.55,10,10,7,30,15,41,0.00,6,,260
2013-2-26,59,46,33,32,28,23,81,55,27,29.94,29.87,29.80,10,10,5,24,13,37,0.00,1,,314
2013-2-27,55,44,33,30,25,14,87,52,21,30.27,30.11,29.87,10,10,10,21,10,26,0.00,0,,343
2013-2-28,57,44,32,30,25,19,87,54,25,30.33,30.27,30.22,10,10,10,17,7,23,0.00,0,,331